When you browse on this site, cookies collect data to enhance your experience and personalize the content and advertising you see.
Visit our Privacy Policy to learn more. By continuing to use the site, you agree to this use of cookies and data.
  • In Österreich
  • Länderverzeichnis
  • Für 7 Tage
  • Wassertemperatur
  • Wetterkarte
  • News
  • Widgets
  • user-avatar
    Anmelden

    Stündliche Wetter Goldehe Sande

    Heute, 22 Februar, Samstag

    Zeit Temperatur Niederschläge Wind Luftdruck Luftfeuchtigkeit
    00:00 +4°C° 0 mm 2 m/S 765 mmHg 86%
    01:00 +4°C° 0 mm 2 m/S 766 mmHg 86%
    02:00 +3°C° 0 mm 3 m/S 766 mmHg 90%
    03:00 +3°C° 0.1 mm 3 m/S 766 mmHg 91%
    04:00 +3°C° 0.1 mm 3 m/S 766 mmHg 92%
    05:00 +3°C° 0.1 mm 3 m/S 766 mmHg 93%
    06:00 +3°C° 0 mm 3 m/S 767 mmHg 92%
    07:00 +3°C° 0 mm 3 m/S 767 mmHg 92%
    08:00 +4°C° 0 mm 4 m/S 768 mmHg 92%
    09:00 +4°C° 0 mm 4 m/S 768 mmHg 88%
    10:00 +5°C° 0 mm 5 m/S 768 mmHg 84%
    11:00 +5°C° 0 mm 5 m/S 769 mmHg 79%
    12:00 +5°C° 0 mm 6 m/S 769 mmHg 74%
    13:00 +5°C° 0 mm 6 m/S 769 mmHg 68%
    14:00 +5°C° 0 mm 7 m/S 769 mmHg 62%
    15:00 +5°C° 0 mm 6 m/S 769 mmHg 62%
    16:00 +5°C° 0 mm 6 m/S 769 mmHg 62%
    17:00 +5°C° 0 mm 6 m/S 769 mmHg 62%
    18:00 +5°C° 0 mm 5 m/S 770 mmHg 65%
    19:00 +4°C° 0 mm 4 m/S 770 mmHg 68%
    20:00 +4°C° 0 mm 3 m/S 770 mmHg 71%
    21:00 +4°C° 0 mm 2 m/S 770 mmHg 72%
    22:00 +4°C° 0 mm 2 m/S 770 mmHg 73%
    23:00 +4°C° 0 mm 2 m/S 770 mmHg 74%

    Morgen, 23 Februar, Sonntag

    Zeit Temperatur Niederschläge Wind Luftdruck Luftfeuchtigkeit
    00:00 +4°C° 0 mm 2 m/S 770 mmHg 74%
    01:00 +3°C° 0 mm 3 m/S 770 mmHg 75%
    02:00 +3°C° 0 mm 3 m/S 770 mmHg 76%
    03:00 +2°C° 0 mm 3 m/S 769 mmHg 76%
    04:00 +2°C° 0 mm 3 m/S 769 mmHg 77%
    05:00 +2°C° 0 mm 3 m/S 768 mmHg 77%
    06:00 +2°C° 0 mm 3 m/S 768 mmHg 78%
    07:00 +3°C° 0 mm 4 m/S 768 mmHg 78%
    08:00 +3°C° 0 mm 4 m/S 768 mmHg 78%
    09:00 +3°C° 0 mm 5 m/S 768 mmHg 73%
    10:00 +6°C° 0 mm 5 m/S 768 mmHg 68%
    11:00 +7°C° 0 mm 6 m/S 767 mmHg 62%
    12:00 +8°C° 0 mm 6 m/S 767 mmHg 60%
    13:00 +9°C° 0 mm 7 m/S 766 mmHg 57%
    14:00 +9°C° 0 mm 7 m/S 766 mmHg 54%
    15:00 +9°C° 0 mm 7 m/S 765 mmHg 55%
    16:00 +9°C° 0 mm 7 m/S 764 mmHg 56%
    17:00 +9°C° 0 mm 7 m/S 764 mmHg 57%
    18:00 +8°C° 0 mm 7 m/S 764 mmHg 61%
    19:00 +6°C° 0 mm 7 m/S 764 mmHg 65%
    20:00 +5°C° 0 mm 7 m/S 764 mmHg 70%
    21:00 +5°C° 0 mm 7 m/S 763 mmHg 68%
    22:00 +5°C° 0 mm 6 m/S 762 mmHg 67%
    23:00 +6°C° 0 mm 5 m/S 762 mmHg 65%

    übermorgen, 24 Februar, Montag

    Zeit Temperatur Niederschläge Wind Luftdruck Luftfeuchtigkeit
    00:00 +5°C° 0 mm 6 m/S 761 mmHg 65%
    01:00 +5°C° 0 mm 6 m/S 761 mmHg 66%
    02:00 +5°C° 0 mm 6 m/S 760 mmHg 66%
    03:00 +5°C° 0 mm 7 m/S 759 mmHg 67%
    04:00 +5°C° 0 mm 7 m/S 758 mmHg 67%
    05:00 +5°C° 0 mm 7 m/S 757 mmHg 67%
    06:00 +6°C° 0 mm 7 m/S 757 mmHg 62%
    07:00 +7°C° 0 mm 8 m/S 757 mmHg 56%
    08:00 +9°C° 0 mm 8 m/S 757 mmHg 51%
    09:00 +11°C° 0 mm 9 m/S 757 mmHg 51%
    10:00 +13°C° 0 mm 10 m/S 757 mmHg 50%
    11:00 +14°C° 0 mm 11 m/S 757 mmHg 50%
    12:00 +13°C° 0 mm 10 m/S 757 mmHg 51%
    13:00 +12°C° 0 mm 10 m/S 757 mmHg 51%
    14:00 +11°C° 0 mm 10 m/S 758 mmHg 52%
    15:00 +11°C° 0 mm 8 m/S 758 mmHg 51%
    16:00 +10°C° 0 mm 7 m/S 759 mmHg 50%
    17:00 +10°C° 0 mm 6 m/S 760 mmHg 49%
    18:00 +9°C° 0 mm 5 m/S 761 mmHg 51%
    19:00 +9°C° 0 mm 3 m/S 762 mmHg 53%
    20:00 +8°C° 0 mm 2 m/S 763 mmHg 55%
    21:00 +7°C° 0 mm 3 m/S 764 mmHg 55%
    22:00 +6°C° 0 mm 4 m/S 765 mmHg 55%
    23:00 +5°C° 0 mm 4 m/S 765 mmHg 55%

    25 Februar, Dienstag

    Zeit Temperatur Niederschläge Wind Luftdruck Luftfeuchtigkeit
    00:00 +5°C° 0 mm 4 m/S 766 mmHg 57%
    01:00 +4°C° 0 mm 4 m/S 766 mmHg 59%
    02:00 +4°C° 0 mm 3 m/S 766 mmHg 61%
    03:00 +4°C° 0 mm 3 m/S 766 mmHg 63%
    04:00 +4°C° 0 mm 2 m/S 765 mmHg 64%
    05:00 +4°C° 0 mm 2 m/S 765 mmHg 66%
    06:00 +4°C° 0 mm 3 m/S 765 mmHg 68%
    07:00 +4°C° 0 mm 4 m/S 765 mmHg 70%
    08:00 +3°C° 0 mm 5 m/S 765 mmHg 73%
    09:00 +5°C° 0 mm 6 m/S 765 mmHg 68%
    10:00 +7°C° 0 mm 6 m/S 765 mmHg 63%
    11:00 +8°C° 0 mm 7 m/S 764 mmHg 58%
    12:00 +7°C° 0 mm 8 m/S 764 mmHg 57%
    13:00 +9°C° 0 mm 8 m/S 763 mmHg 56%
    14:00 +8°C° 0 mm 9 m/S 762 mmHg 54%
    15:00 +8°C° 0 mm 9 m/S 761 mmHg 57%
    16:00 +7°C° 0 mm 9 m/S 761 mmHg 60%
    17:00 +7°C° 0 mm 9 m/S 760 mmHg 63%
    18:00 +7°C° 0 mm 9 m/S 760 mmHg 65%
    19:00 +6°C° 0 mm 9 m/S 759 mmHg 67%
    20:00 +6°C° 0 mm 9 m/S 759 mmHg 70%
    21:00 +6°C° 0 mm 9 m/S 758 mmHg 70%
    22:00 +6°C° 0 mm 8 m/S 758 mmHg 70%
    23:00 +6°C° 0 mm 8 m/S 757 mmHg 70%

    26 Februar, Mittwoch

    Zeit Temperatur Niederschläge Wind Luftdruck Luftfeuchtigkeit
    00:00 +6°C° 0 mm 8 m/S 757 mmHg 70%
    01:00 +6°C° 0 mm 8 m/S 756 mmHg 69%
    02:00 +6°C° 0 mm 8 m/S 755 mmHg 69%
    03:00 +5°C° 0 mm 8 m/S 755 mmHg 70%
    04:00 +5°C° 0 mm 8 m/S 754 mmHg 71%
    05:00 +5°C° 0 mm 8 m/S 754 mmHg 73%
    06:00 +5°C° 0 mm 7 m/S 754 mmHg 71%
    07:00 +5°C° 0 mm 6 m/S 754 mmHg 70%
    08:00 +7°C° 0 mm 5 m/S 753 mmHg 68%
    09:00 +8°C° 0 mm 5 m/S 753 mmHg 65%
    10:00 +9°C° 0 mm 5 m/S 753 mmHg 62%
    11:00 +11°C° 0 mm 6 m/S 753 mmHg 59%
    12:00 +11°C° 0 mm 6 m/S 752 mmHg 58%
    13:00 +13°C° 0 mm 6 m/S 752 mmHg 58%
    14:00 +14°C° 0 mm 6 m/S 751 mmHg 57%
    15:00 +14°C° 0 mm 7 m/S 751 mmHg 62%
    16:00 +12°C° 0 mm 7 m/S 750 mmHg 68%
    17:00 +12°C° 0 mm 7 m/S 750 mmHg 73%
    18:00 +12°C° 0 mm 8 m/S 750 mmHg 75%
    19:00 +11°C° 0 mm 8 m/S 750 mmHg 78%
    20:00 +11°C° 0 mm 8 m/S 750 mmHg 81%
    21:00 +11°C° 0 mm 8 m/S 750 mmHg 81%
    22:00 +10°C° 0 mm 7 m/S 750 mmHg 81%
    23:00 +10°C° 0 mm 7 m/S 750 mmHg 81%

    27 Februar, Donnerstag

    Zeit Temperatur Niederschläge Wind Luftdruck Luftfeuchtigkeit
    00:00 +10°C° 0 mm 7 m/S 750 mmHg 81%
    01:00 +10°C° 0 mm 8 m/S 750 mmHg 80%
    02:00 +10°C° 0 mm 8 m/S 750 mmHg 80%
    03:00 +9°C° 0 mm 8 m/S 750 mmHg 82%
    04:00 +9°C° 0 mm 7 m/S 750 mmHg 85%
    05:00 +9°C° 0 mm 7 m/S 750 mmHg 87%
    06:00 +9°C° 0 mm 7 m/S 750 mmHg 88%
    07:00 +9°C° 0 mm 7 m/S 750 mmHg 89%
    08:00 +9°C° 0 mm 7 m/S 751 mmHg 90%
    09:00 +11°C° 0 mm 7 m/S 751 mmHg 84%
    10:00 +12°C° 0 mm 8 m/S 751 mmHg 77%
    11:00 +13°C° 0 mm 9 m/S 751 mmHg 71%
    12:00 +13°C° 0 mm 9 m/S 751 mmHg 71%
    13:00 +13°C° 0 mm 9 m/S 750 mmHg 72%
    14:00 +13°C° 0 mm 9 m/S 750 mmHg 72%
    15:00 +12°C° 0.2 mm 8 m/S 750 mmHg 74%
    16:00 +11°C° 0.2 mm 8 m/S 750 mmHg 77%
    17:00 +11°C° 0.2 mm 7 m/S 750 mmHg 79%
    18:00 +10°C° 0.2 mm 7 m/S 750 mmHg 82%
    19:00 +10°C° 0.2 mm 7 m/S 750 mmHg 84%
    20:00 +9°C° 0.2 mm 7 m/S 750 mmHg 86%
    21:00 +9°C° 0.1 mm 7 m/S 750 mmHg 85%
    22:00 +9°C° 0.1 mm 7 m/S 750 mmHg 85%
    23:00 +9°C° 0.1 mm 7 m/S 750 mmHg 84%
    Mehr zeigen